GW3451 Weather Reports


time (UTC)temp
F
wind
direction
speed
knots
gust
knots
rain 1hr
in
rain 24hr
in
rain mn
in
humidity
%
barometer
mb
20260508065019 57 96 1.7 4.3 0.00 0.00 0.00 24 1016.9
20260508064019 57 4 1.7 3.5 0.00 0.00 0.00 24 1017.0
20260508063019 58 336 0.9 3.5 0.00 0.00 0.00 23 1017.0
20260508062040 59 110 3.5 5.2 0.00 0.00 0.00 21 1016.9
20260508061020 59 110 3.5 4.3 0.00 0.00 0.00 21 1016.8
20260508060020 59 114 3.5 6.1 0.00 0.00 0.00 22 1016.8
20260508055020 59 113 3.5 6.1 0.00 0.00 0.00 21 1016.8
20260508054020 59 115 3.5 5.2 0.00 0.00 0.00 21 1016.8
20260508053041 58 120 1.7 5.2 0.00 0.00 0.00 22 1016.8
20260508052018 59 117 2.6 5.2 0.00 0.00 0.00 23 1016.8
20260508051018 59 108 3.5 4.3 0.00 0.00 0.00 22 1016.8
20260508050021 60 120 1.7 4.3 0.00 0.00 0.00 22 1016.8
20260508045021 61 104 2.6 5.2 0.00 0.00 0.00 21 1016.8
20260508044018 61 108 3.5 5.2 0.00 0.00 0.00 21 1016.8
20260508043018 61 101 1.7 4.3 0.00 0.00 0.00 23 1016.8
20260508042039 61 106 2.6 3.5 0.00 0.00 0.00 23 1016.8
20260508041018 62 106 2.6 4.3 0.00 0.00 0.00 23 1016.8
20260508040019 62 111 1.7 3.5 0.00 0.00 0.00 22 1016.7
20260508035039 63 116 0.0 1.7 0.00 0.00 0.00 20 1016.6
20260508034019 64 55 0.0 1.7 0.00 0.00 0.00 19 1016.4
20260508033019 65 78 1.7 4.3 0.00 0.00 0.00 19 1016.2
20260508032021 65 56 1.7 4.3 0.00 0.00 0.00 17 1016.0
20260508031041 66 63 0.0 0.9 0.00 0.00 0.00 17 1015.8
20260508030020 66 44 0.0 1.7 0.00 0.00 0.00 16 1015.7
20260508025021 67 96 0.0 1.7 0.00 0.00 0.00 17 1015.7
20260508024021 67 331 0.0 1.7 0.00 0.00 0.00 17 1015.6
20260508023017 68 332 0.9 2.6 0.00 0.00 0.00 18 1015.5
20260508022018 69 215 0.0 1.7 0.00 0.00 0.00 17 1015.4
20260508021017 70 210 0.9 2.6 0.00 0.00 0.00 16 1015.2
20260508020021 71 236 0.9 3.5 0.00 0.00 0.00 16 1015.1
20260508015018 71 218 2.6 4.3 0.00 0.00 0.00 15 1015.0
20260508014018 72 220 1.7 4.3 0.00 0.00 0.00 16 1014.9
20260508013018 72 197 2.6 5.2 0.00 0.00 0.00 16 1014.8
20260508012018 73 180 1.7 4.3 0.00 0.00 0.00 15 1014.7
20260508011018 73 204 1.7 6.1 0.00 0.00 0.00 14 1014.6
20260508010018 74 199 3.5 7.0 0.00 0.00 0.00 14 1014.5
20260508005019 75 204 1.7 7.8 0.00 0.00 0.00 13 1014.5
20260508004019 75 217 1.7 5.2 0.00 0.00 0.00 13 1014.5
20260508003018 76 205 2.6 7.8 0.00 0.00 0.00 13 1014.5
20260508002036 76 269 1.7 6.1 0.00 0.00 0.00 13 1014.6
20260508001019 76 244 2.6 7.8 0.00 0.00 0.00 13 1014.7
20260508000020 76 236 2.6 7.8 0.00 0.00 0.00 13 1014.7
20260507235020 76 225 1.7 6.1 0.00 0.00 0.00 13 1014.7
20260507234017 75 241 2.6 7.8 0.00 0.00 0.00 13 1014.9
20260507233018 74 187 3.5 7.8 0.00 0.00 0.00 14 1014.9
20260507232020 75 228 3.5 8.7 0.00 0.00 0.00 13 1015.1
20260507231021 73 165 2.6 6.1 0.00 0.00 0.00 14 1015.2
20260507230018 74 146 2.6 6.1 0.00 0.00 0.00 15 1015.3
20260507225018 74 209 1.7 7.0 0.00 0.00 0.00 15 1015.4
20260507224019 74 174 2.6 7.8 0.00 0.00 0.00 15 1015.5
20260507223018 74 165 1.7 6.1 0.00 0.00 0.00 15 1015.6
20260507222019 74 203 3.5 8.7 0.00 0.00 0.00 16 1015.9
20260507221018 75 186 1.7 4.3 0.00 0.00 0.00 15 1016.0
20260507220018 73 194 2.6 6.1 0.00 0.00 0.00 17 1016.3
20260507215019 75 129 1.7 4.3 0.00 0.00 0.00 16 1016.5
20260507214019 73 153 1.7 7.0 0.00 0.00 0.00 17 1016.7
20260507213019 72 206 3.5 7.8 0.00 0.00 0.00 17 1017.0
20260507212019 71 112 1.7 4.3 0.00 0.00 0.00 19 1017.2
20260507211020 73 169 2.6 9.6 0.00 0.00 0.00 19 1017.3
20260507210020 73 274 2.6 7.8 0.00 0.00 0.00 18 1017.5
20260507205121 71 235 2.6 7.8 0.00 0.00 0.00 19 1017.8
20260507204038 72 209 3.5 11.3 0.00 0.00 0.00 20 1018.0
20260507203017 72 173 1.7 7.0 0.00 0.00 0.00 19 1018.1
20260507202021 72 275 2.6 7.0 0.00 0.00 0.00 19 1018.3
20260507201043 70 176 1.7 6.1 0.00 0.00 0.00 20 1018.5
20260507200019 69 350 1.7 5.2 0.00 0.00 0.00 21 1018.6
20260507195017 69 349 1.7 7.0 0.00 0.00 0.00 21 1018.7
20260507194018 70 305 2.6 8.7 0.00 0.00 0.00 19 1018.9
20260507193019 69 301 2.6 7.8 0.00 0.00 0.00 20 1019.1
20260507192018 68 247 3.5 9.6 0.00 0.00 0.00 21 1019.3
20260507191018 67 189 1.7 5.2 0.00 0.00 0.00 21 1019.5
20260507190019 66 301 1.7 5.2 0.00 0.00 0.00 22 1019.6
20260507185018 67 289 3.5 7.0 0.00 0.00 0.00 23 1019.9
20260507184019 67 219 1.7 7.0 0.00 0.00 0.00 23 1020.2
20260507183019 64 284 2.6 7.8 0.00 0.00 0.00 25 1020.3
20260507182019 63 5 4.3 7.8 0.00 0.00 0.00 27 1020.5
20260507181020 64 326 1.7 6.1 0.00 0.00 0.00 26 1020.7
20260507180019 62 324 2.6 6.1 0.00 0.00 0.00 27 1020.8
20260507175020 61 4 3.5 7.8 0.00 0.00 0.00 27 1020.9
20260507174018 60 308 3.5 9.6 0.00 0.00 0.00 28 1021.0
20260507173018 60 340 3.5 5.2 0.00 0.00 0.00 27 1021.1
20260507172041 60 333 2.6 7.8 0.00 0.00 0.00 29 1021.2
20260507171020 58 338 2.6 6.1 0.00 0.00 0.00 34 1021.5
20260507170018 58 1 4.3 9.6 0.00 0.00 0.00 36 1021.6
20260507165021 58 303 3.5 7.0 0.00 0.00 0.00 38 1021.6
20260507164021 57 31 2.6 7.0 0.00 0.00 0.00 39 1021.7
20260507163018 57 1 4.3 8.7 0.00 0.00 0.00 41 1021.7
20260507162038 56 357 4.3 9.6 0.00 0.00 0.00 42 1021.8
20260507161019 55 15 3.5 7.8 0.00 0.00 0.00 42 1021.9
20260507160021 54 346 3.5 7.8 0.00 0.00 0.00 40 1021.9
20260507155019 54 20 2.6 7.8 0.00 0.00 0.00 45 1022.0
20260507154019 53 14 2.6 6.1 0.00 0.00 0.00 48 1022.0
20260507153019 52 12 2.6 7.0 0.00 0.00 0.00 50 1022.1
20260507152020 50 40 1.7 4.3 0.00 0.00 0.00 53 1022.0
20260507151041 49 33 2.6 7.0 0.00 0.00 0.00 55 1022.0
20260507150020 48 9 3.5 7.0 0.00 0.00 0.00 60 1022.0
20260507145021 46 9 6.1 11.3 0.00 0.00 0.00 62 1022.0
20260507144040 46 11 6.1 11.3 0.00 0.00 0.00 64 1022.0
20260507143021 45 4 6.1 10.4 0.00 0.00 0.00 65 1022.0
20260507142021 45 15 4.3 7.8 0.00 0.00 0.00 66 1022.1
20260507141018 44 7 4.3 10.4 0.00 0.00 0.00 69 1022.1
20260507140042 43 359 4.3 7.8 0.00 0.00 0.00 70 1022.1
20260507135021 42 12 5.2 10.4 0.00 0.00 0.00 71 1022.1
20260507134042 41 5 5.2 11.3 0.00 0.00 0.00 72 1022.0
20260507133019 41 12 4.3 7.8 0.00 0.00 0.00 74 1021.9
20260507132018 40 10 5.2 8.7 0.00 0.00 0.00 76 1021.9
20260507131040 39 9 4.3 7.0 0.00 0.00 0.00 77 1021.9
20260507130022 38 11 5.2 8.7 0.00 0.00 0.00 79 1021.9
20260507125019 38 16 4.3 7.8 0.00 0.00 0.00 79 1021.8
20260507124019 38 21 4.3 7.8 0.00 0.00 0.00 79 1021.8
20260507123039 38 25 3.5 7.8 0.00 0.00 0.00 77 1021.6
20260507122019 38 34 3.5 7.0 0.00 0.00 0.00 77 1021.5
20260507121040 38 23 3.5 7.0 0.00 0.00 0.00 77 1021.5
20260507120019 38 8 5.2 8.7 0.00 0.00 0.00 76 1021.4
20260507115020 39 15 5.2 8.7 0.00 0.00 0.00 74 1021.5
20260507114040 39 16 5.2 7.8 0.00 0.00 0.00 74 1021.5
20260507113020 39 16 6.1 9.6 0.00 0.00 0.00 71 1021.4
20260507112040 39 16 4.3 8.7 0.00 0.00 0.00 65 1021.4
20260507111017 39 13 3.5 5.2 0.00 0.00 0.00 65 1021.3
20260507110021 39 15 1.7 3.5 0.00 0.00 0.00 66 1021.3
20260507105022 40 17 3.5 6.1 0.00 0.00 0.00 67 1021.3
20260507104021 40 13 3.5 7.8 0.00 0.00 0.00 68 1021.4
20260507103018 40 28 2.6 7.0 0.00 0.00 0.00 70 1021.5
20260507102018 40 8 5.2 7.0 0.00 0.00 0.00 69 1021.3
20260507101018 40 19 2.6 4.3 0.00 0.00 0.00 69 1021.3
20260507100022 41 11 3.5 5.2 0.00 0.00 0.00 68 1021.2
20260507095019 41 5 3.5 5.2 0.00 0.00 0.00 67 1021.2
20260507094019 42 360 3.5 6.1 0.00 0.00 0.00 64 1021.1
20260507093019 42 353 4.3 7.8 0.00 0.00 0.00 61 1021.0
20260507092101 43 359 2.6 5.2 0.00 0.00 0.00 59 1021.0
20260507091019 44 20 2.6 5.2 0.00 0.00 0.00 57 1021.0
20260507090019 45 19 4.3 7.8 0.00 0.00 0.00 49 1021.1
20260507085020 46 11 2.6 5.2 0.00 0.00 0.00 40 1021.0
20260507084021 47 14 1.7 3.5 0.00 0.00 0.00 38 1021.0
20260507083102 48 356 2.6 4.3 0.00 0.00 0.00 35 1021.0
20260507082040 49 12 3.5 5.2 0.00 0.00 0.00 33 1021.1
20260507081018 48 19 4.3 7.8 0.00 0.00 0.00 32 1021.1
20260507080021 47 48 1.7 7.0 0.00 0.00 0.00 34 1021.0
20260507075020 48 55 0.9 2.6 0.00 0.00 0.00 35 1020.9
20260507074021 48 55 0.9 1.7 0.00 0.00 0.00 34 1020.8
20260507073019 49 24 3.5 6.1 0.00 0.00 0.00 32 1020.9
20260507072018 49 28 3.5 6.1 0.00 0.00 0.00 33 1020.7
20260507071020 49 46 0.9 3.5 0.00 0.00 0.00 34 1020.7
20260507070021 50 26 3.5 6.1 0.00 0.00 0.00 33 1020.6